[[{"header":{"parameterUnit":"m.s-1","parameterCategory":1,"la1":30.2991,"la2":30.254,"lo1":-89.0895,"lo2":-89.0444,"dy":0.0017,"dx":0.0017,"nx":28,"ny":28,"refTime":"2023-10-18T21:00:00:Z","depth":0,"parameterNumber":2,"parameterNumberName":"U-component_of_WINDS"},"data":[0,0,0,0,0,0,0,0,0,0,0,0,0,0,0,0,0,0,0,0,0,0,0,0,0,0,0,0,0,0,0,0,0,0,0,0,0,0,0,0,0,0,0,0,0,0,0,0,0,0,0,0,0,0,0,0,0,0,-1.2003,-1.2004,0,-1.207,-1.2071,-1.2071,-1.2053,-1.2052,-1.205,-1.2049,-1.2118,-1.2121,-1.2124,0,0,0,0,0,0,0,0,0,0,0,0,0,-1.1861,-1.1864,-1.2003,-1.2004,-1.2005,-1.207,-1.2071,-1.2072,-1.2053,-1.2052,-1.205,-1.2048,-1.2117,-1.2121,-1.2125,0,0,0,0,0,0,0,0,0,0,0,0,0,-1.1925,-1.1865,-1.2003,-1.2004,-1.2004,-1.207,-1.2071,-1.2072,-1.2054,-1.2052,-1.205,-1.2048,-1.2116,-1.2121,-1.2125,-1.2194,0,0,-1.2139,-1.2141,0,0,0,0,0,0,0,0,-1.1921,-1.193,-1.2003,-1.2004,-1.2005,-1.2051,-1.2046,-1.2113,-1.2054,-1.2035,-1.2049,-1.2047,-1.2098,-1.2104,-1.2121,-1.2198,-1.2201,-1.214,-1.2143,-1.2145,-1.2146,0,0,0,0,0,0,0,-1.1917,-1.1927,-1.203,-1.2004,-1.2005,-1.2001,-1.2008,-1.2059,-1.2077,-1.2036,-1.2035,-1.2043,-1.2098,-1.2116,-1.2122,-1.2202,-1.214,-1.2144,-1.2147,-1.2148,-1.2339,-1.2341,0,0,0,0,0,0,-1.1912,-1.1924,-1.2028,-1.2032,-1.1957,-1.2005,-1.2013,-1.2038,-1.2076,-1.208,-1.2045,-1.2042,-1.2109,-1.2117,-1.2124,-1.2208,-1.2145,-1.2149,-1.2152,-1.2337,-1.2339,-1.2342,0,0,0,0,0,0,-1.1909,-1.1921,-1.2025,-1.1977,-1.199,-1.201,-1.2039,-1.2041,-1.2059,-1.2083,-1.2086,-1.206,-1.2108,-1.2118,-1.2177,-1.2211,-1.2151,-1.2155,-1.2334,-1.2338,-1.2341,-1.2377,0,0,0,0,0,0,-1.1905,-1.192,-1.1946,-1.1978,-1.1993,-1.2076,-1.2041,-1.2043,-1.2067,-1.2064,-1.2098,-1.2102,-1.2107,-1.217,-1.2182,-1.2216,-1.2159,-1.2331,-1.2336,-1.234,-1.2373,-1.2381,-1.2388,0,0,0,0,0,-1.19,-1.1954,-1.1948,-1.1961,-1.2026,-1.2078,-1.2087,-1.2092,-1.207,-1.2097,-1.2112,-1.2101,-1.2205,-1.2176,-1.2189,-1.2225,-1.2329,-1.2334,-1.2339,-1.2369,-1.2379,-1.2388,0,0,0,0,0,0,-1.1926,-1.1958,-1.1952,-1.2018,-1.2046,-1.2075,-1.2109,-1.2102,-1.2137,-1.2132,-1.2137,-1.2145,-1.2206,-1.2221,-1.2189,-1.2294,-1.2264,-1.2272,-1.2282,-1.2292,-1.23,-1.2295,-1.2163,0,0,0,0,0,-1.194,-1.1979,-1.2005,-1.2061,-1.2075,-1.209,-1.2113,-1.2114,-1.2143,-1.2154,-1.2174,-1.2203,-1.2242,-1.2268,-1.2305,-1.2374,-1.2382,-1.2405,-1.2413,-1.2419,-1.2426,-1.2465,-1.2476,-1.2359,-1.2359,-1.2359,0,0,-1.1968,-1.1991,-1.2015,-1.2067,-1.2089,-1.213,-1.21,-1.2144,-1.2175,-1.2161,-1.2219,-1.2234,-1.2266,-1.2331,-1.236,-1.2346,-1.246,-1.2426,-1.2431,-1.2434,-1.2471,-1.2482,-1.2492,-1.2362,-1.2362,-1.2361,0,0,-1.2042,-1.2062,-1.2111,-1.2133,-1.2166,-1.2175,-1.2187,-1.2218,-1.2227,-1.2285,-1.2275,-1.2312,-1.2379,-1.2403,-1.2423,-1.2505,-1.2496,-1.2517,-1.2558,-1.2595,-1.2604,-1.2612,-1.2642,-1.2653,-1.2524,-1.2524,-1.2524,0,-1.2073,-1.2135,-1.2138,-1.2183,-1.2206,-1.2195,-1.2245,-1.2266,-1.231,-1.2326,-1.2309,-1.2393,-1.2414,-1.2485,-1.2504,-1.2521,-1.2535,-1.2514,-1.2602,-1.2611,-1.2619,-1.2647,-1.2658,-1.2526,-1.2526,-1.2526,-1.2525,0,-1.2172,-1.2215,-1.225,-1.2292,-1.2319,-1.2367,-1.2378,-1.2405,-1.2403,-1.2414,-1.2473,-1.2498,-1.254,-1.2556,-1.2556,-1.2627,-1.2617,-1.2601,-1.2571,-1.2632,-1.2659,-1.267,-1.253,-1.2529,-1.2528,-1.2527,0,0,-1.2265,-1.2308,-1.2321,-1.234,-1.2375,-1.2408,-1.2455,-1.2496,-1.252,-1.255,-1.259,-1.2646,-1.2632,-1.2656,-1.2657,-1.269,-1.2754,-1.267,-1.2671,-1.2686,-1.2834,-1.2847,-1.2859,-1.2748,-1.275,-1.2752,-1.2832,0,-1.2342,-1.2425,-1.2429,-1.2504,-1.2544,-1.2533,-1.2574,-1.2601,-1.2612,-1.2648,-1.266,-1.2701,-1.2678,-1.2692,-1.2724,-1.2739,-1.2784,-1.2733,-1.2786,-1.2788,-1.2779,-1.2873,-1.2887,-1.2961,-1.2842,-1.2844,-1.2845,0,-1.2443,-1.2476,-1.2555,-1.2585,-1.2602,-1.2639,-1.2676,-1.271,-1.274,-1.2746,-1.2772,-1.2769,-1.2817,-1.2784,-1.2851,-1.2817,-1.2838,-1.2849,-1.2852,-1.2858,-1.2821,-1.2883,-1.2985,-1.2997,-1.2862,-1.2861,-1.2859,0,-1.2504,-1.2568,-1.2624,-1.264,-1.2676,-1.2702,-1.2718,-1.2746,-1.277,-1.2803,-1.2819,-1.2857,-1.2879,-1.2908,-1.2916,-1.2891,-1.2983,-1.2951,-1.299,-1.299,-1.3011,-1.301,-1.3119,-1.3023,-1.3023,-1.3023,-1.3023,0,-1.259,-1.2639,-1.2652,-1.2686,-1.2741,-1.2745,-1.2799,-1.2813,-1.2838,-1.2875,-1.2868,-1.2903,-1.291,-1.2947,-1.2953,-1.3008,-1.3018,-1.3024,-1.3026,-1.3026,-1.3025,-1.3041,-1.3036,-1.3026,-1.3025,-1.3025,-1.3024,0,-1.2668,-1.2678,-1.2738,-1.2767,-1.2775,-1.2814,-1.2839,-1.2872,-1.2882,-1.293,-1.2941,-1.2957,-1.3,-1.301,-1.3061,-1.3065,-1.3131,-1.3127,-1.3121,-1.3121,-1.316,-1.3157,-1.3285,-1.3302,-1.3193,-1.3194,-1.3195,0,-1.2723,-1.276,-1.2793,-1.2817,-1.2834,-1.2873,-1.2898,-1.2903,-1.2929,-1.2965,-1.2994,-1.3036,-1.307,-1.3139,-1.3156,-1.3195,-1.3192,-1.3234,-1.3198,-1.3197,-1.3194,-1.3192,-1.3196,-1.3241,-1.3243,-1.3244,-1.3244,0,-1.2819,-1.2822,-1.2858,-1.2896,-1.2925,-1.2955,-1.2984,-1.3004,-1.3013,-1.3043,-1.3087,-1.3113,-1.3165,-1.3207,-1.3246,-1.3263,-1.3256,-1.3255,-1.3267,-1.3268,-1.3263,-1.3267,-1.3141,-1.3253,-1.3252,-1.3251,-1.3251,-1.325,-1.2888,-1.2921,-1.2949,-1.2989,-1.3011,-1.3037,-1.307,-1.3084,-1.3121,-1.3163,-1.3164,-1.3212,-1.324,-1.3291,-1.331,-1.3348,-1.3335,-1.3351,-1.3356,-1.336,-1.3364,-1.3256,-1.3355,-1.3355,-1.3355,-1.3354,-1.3354,0,-1.2984,-1.3002,-1.3038,-1.3079,-1.311,-1.31,-1.3131,-1.3158,-1.32,-1.3227,-1.326,-1.331,-1.3351,-1.337,-1.3411,-1.3437,-1.3435,-1.3447,-1.3446,-1.345,-1.3373,-1.3359,-1.3449,-1.3449,-1.3449,-1.3449,-1.3449,-1.3449,-1.3038,-1.3094,-1.31,-1.3166,-1.3183,-1.323,-1.3249,-1.3273,-1.3295,-1.3351,-1.3385,-1.3397,-1.3421,-1.3463,-1.3499,-1.3504,-1.352,-1.3534,-1.3538,-1.3465,-1.3456,-1.3446,-1.3434,-1.3537,-1.3538,-1.3612,-1.3613,-1.3613]},{"header":{"parameterUnit":"m.s-1","parameterCategory":1,"la1":30.2991,"la2":30.254,"lo1":-89.0895,"lo2":-89.0444,"dy":0.0017,"dx":0.0017,"nx":28,"ny":28,"refTime":"2023-10-18T21:00:00:Z","depth":0,"parameterNumber":3,"parameterNumberName":"V-component_of_WINDS"},"data":[0,0,0,0,0,0,0,0,0,0,0,0,0,0,0,0,0,0,0,0,0,0,0,0,0,0,0,0,0,0,0,0,0,0,0,0,0,0,0,0,0,0,0,0,0,0,0,0,0,0,0,0,0,0,0,0,0,0,-1.3016,-1.3016,0,-1.3023,-1.3023,-1.3023,-1.2994,-1.2993,-1.2992,-1.2992,-1.2999,-1.3,-1.3001,0,0,0,0,0,0,0,0,0,0,0,0,0,-1.2975,-1.2976,-1.3016,-1.3016,-1.3016,-1.3023,-1.3023,-1.3024,-1.2994,-1.2993,-1.2992,-1.2991,-1.2998,-1.2999,-1.3001,0,0,0,0,0,0,0,0,0,0,0,0,0,-1.2989,-1.2976,-1.3016,-1.3002,-1.3001,-1.3023,-1.3023,-1.3024,-1.2994,-1.2993,-1.2992,-1.2991,-1.2998,-1.2999,-1.3001,-1.3036,0,0,-1.3005,-1.3006,0,0,0,0,0,0,0,0,-1.2988,-1.299,-1.3004,-1.3003,-1.3002,-1.3006,-1.3012,-1.3028,-1.2995,-1.2997,-1.2992,-1.299,-1.3002,-1.3003,-1.3008,-1.3036,-1.3037,-1.3006,-1.3006,-1.3007,-1.3008,0,0,0,0,0,0,0,-1.2987,-1.299,-1.3019,-1.3004,-1.3003,-1.2996,-1.2996,-1.3015,-1.3007,-1.2997,-1.2995,-1.2996,-1.3001,-1.3006,-1.3008,-1.3037,-1.3006,-1.3007,-1.3008,-1.3008,-1.3095,-1.3097,0,0,0,0,0,0,-1.2988,-1.2989,-1.3019,-1.3019,-1.2992,-1.2997,-1.2998,-1.3006,-1.3007,-1.3005,-1.2997,-1.2995,-1.3004,-1.3006,-1.3008,-1.3049,-1.3007,-1.3009,-1.3009,-1.3094,-1.3096,-1.3097,0,0,0,0,0,0,-1.2987,-1.2991,-1.3018,-1.3004,-1.3006,-1.2999,-1.3009,-1.3007,-1.3012,-1.3007,-1.3005,-1.3003,-1.3003,-1.3006,-1.3029,-1.3049,-1.3009,-1.3011,-1.3092,-1.3094,-1.3096,-1.3133,0,0,0,0,0,0,-1.2986,-1.2991,-1.3005,-1.3004,-1.3007,-1.304,-1.301,-1.3008,-1.3015,-1.3012,-1.3012,-1.3011,-1.3002,-1.3027,-1.3031,-1.3051,-1.3012,-1.309,-1.3093,-1.3096,-1.313,-1.3136,-1.3141,0,0,0,0,0,-1.2985,-1.3014,-1.3005,-1.3009,-1.3024,-1.3041,-1.3043,-1.3033,-1.3016,-1.303,-1.3027,-1.3011,-1.3046,-1.303,-1.3034,-1.3054,-1.3089,-1.3092,-1.3095,-1.3127,-1.3135,-1.3141,0,0,0,0,0,0,-1.3017,-1.3014,-1.3004,-1.3034,-1.3038,-1.3036,-1.3053,-1.3041,-1.305,-1.3046,-1.3032,-1.3033,-1.3059,-1.3059,-1.3041,-1.3088,-1.3065,-1.3069,-1.3088,-1.3095,-1.31,-1.31,-1.3013,0,0,0,0,0,-1.3028,-1.3042,-1.3039,-1.3065,-1.3068,-1.306,-1.3067,-1.3059,-1.3063,-1.3064,-1.3062,-1.3066,-1.3078,-1.3086,-1.3097,-1.3129,-1.3129,-1.3145,-1.3151,-1.3156,-1.316,-1.3177,-1.3184,-1.3108,-1.3107,-1.3107,0,0,-1.305,-1.305,-1.306,-1.3072,-1.3074,-1.3089,-1.3062,-1.3079,-1.309,-1.3067,-1.3089,-1.3088,-1.3091,-1.312,-1.3132,-1.312,-1.318,-1.316,-1.3163,-1.3165,-1.3181,-1.3188,-1.3195,-1.311,-1.3109,-1.3109,0,0,-1.3098,-1.3099,-1.3122,-1.3125,-1.3128,-1.3123,-1.3129,-1.3129,-1.3127,-1.3149,-1.3132,-1.3145,-1.3165,-1.3169,-1.3173,-1.3222,-1.3209,-1.3226,-1.3256,-1.3273,-1.3279,-1.3284,-1.3302,-1.3309,-1.323,-1.323,-1.323,0,-1.3125,-1.3147,-1.3135,-1.3154,-1.316,-1.3139,-1.3162,-1.3165,-1.3172,-1.3176,-1.3163,-1.3188,-1.3189,-1.3218,-1.323,-1.3234,-1.324,-1.3226,-1.3279,-1.3284,-1.3289,-1.3306,-1.3313,-1.3232,-1.3232,-1.3231,-1.3231,0,-1.318,-1.3196,-1.3214,-1.3222,-1.3229,-1.325,-1.3241,-1.325,-1.3241,-1.3237,-1.326,-1.326,-1.327,-1.3276,-1.3267,-1.3304,-1.3297,-1.3282,-1.3258,-1.3299,-1.3315,-1.3321,-1.3235,-1.3234,-1.3234,-1.3233,0,0,-1.325,-1.325,-1.3257,-1.326,-1.3263,-1.3275,-1.3294,-1.3304,-1.3313,-1.3318,-1.3334,-1.3352,-1.3338,-1.3343,-1.3334,-1.3349,-1.3388,-1.3331,-1.3331,-1.3343,-1.3429,-1.3442,-1.3449,-1.3379,-1.338,-1.3381,-1.3429,0,-1.3297,-1.3331,-1.3321,-1.3355,-1.3369,-1.335,-1.3367,-1.337,-1.3366,-1.3378,-1.3374,-1.3387,-1.3367,-1.337,-1.3384,-1.3381,-1.3406,-1.3377,-1.3394,-1.3395,-1.3395,-1.3457,-1.347,-1.3516,-1.3435,-1.3436,-1.3437,0,-1.3358,-1.3366,-1.3402,-1.3402,-1.3407,-1.3423,-1.3432,-1.3443,-1.3446,-1.3442,-1.3448,-1.3436,-1.3455,-1.343,-1.3456,-1.3437,-1.3443,-1.3442,-1.3444,-1.3446,-1.3419,-1.3462,-1.353,-1.3538,-1.3447,-1.3446,-1.3445,0,-1.3406,-1.3425,-1.3449,-1.3452,-1.3453,-1.3464,-1.3465,-1.3467,-1.3474,-1.3481,-1.3486,-1.3495,-1.35,-1.3508,-1.3498,-1.3481,-1.3526,-1.3501,-1.3524,-1.3524,-1.3535,-1.3534,-1.3606,-1.3538,-1.3537,-1.3537,-1.3537,0,-1.346,-1.3483,-1.3471,-1.3486,-1.351,-1.3498,-1.3523,-1.3521,-1.3523,-1.3537,-1.352,-1.3533,-1.352,-1.3532,-1.3525,-1.3547,-1.355,-1.3548,-1.3545,-1.355,-1.355,-1.3554,-1.3551,-1.3539,-1.3539,-1.3538,-1.3538,0,-1.3518,-1.3511,-1.3536,-1.3534,-1.3534,-1.3553,-1.3551,-1.3565,-1.356,-1.3578,-1.3581,-1.3574,-1.3587,-1.3579,-1.3592,-1.3587,-1.3617,-1.361,-1.3616,-1.3615,-1.3639,-1.3637,-1.3716,-1.3726,-1.3651,-1.3651,-1.3652,0,-1.3554,-1.3572,-1.3572,-1.358,-1.3582,-1.3596,-1.3603,-1.3591,-1.3599,-1.3604,-1.3617,-1.3629,-1.3638,-1.366,-1.3656,-1.3666,-1.3659,-1.3686,-1.3661,-1.3665,-1.3661,-1.366,-1.3662,-1.3692,-1.3693,-1.3694,-1.3694,0,-1.3619,-1.3615,-1.3626,-1.3635,-1.3644,-1.3651,-1.3657,-1.3665,-1.3653,-1.3662,-1.3676,-1.3683,-1.3697,-1.3709,-1.3718,-1.3718,-1.3704,-1.3702,-1.3708,-1.3713,-1.3716,-1.3715,-1.3631,-1.3701,-1.37,-1.37,-1.3699,-1.3699,-1.3668,-1.3682,-1.3685,-1.3698,-1.37,-1.3706,-1.3719,-1.3716,-1.3727,-1.3738,-1.373,-1.3746,-1.3748,-1.3758,-1.376,-1.3773,-1.3762,-1.377,-1.3773,-1.3775,-1.3779,-1.3714,-1.3774,-1.3774,-1.3774,-1.3774,-1.3774,0,-1.3732,-1.3733,-1.3745,-1.3753,-1.3763,-1.3749,-1.3755,-1.3764,-1.3779,-1.3782,-1.3792,-1.3807,-1.3819,-1.3816,-1.3826,-1.3837,-1.3831,-1.384,-1.3839,-1.384,-1.3788,-1.3782,-1.3845,-1.3845,-1.3845,-1.3845,-1.3845,-1.3845,-1.3767,-1.3791,-1.3787,-1.3812,-1.3812,-1.3828,-1.3832,-1.3837,-1.384,-1.3859,-1.3869,-1.3866,-1.3867,-1.3877,-1.3887,-1.3886,-1.3891,-1.3902,-1.3899,-1.385,-1.3843,-1.3837,-1.3831,-1.3903,-1.3903,-1.395,-1.395,-1.3951]}]]